Hourly Data Report for October 02, 2016

All times are specified in Local Standard Time (LST). Add 1 hour to adjust for Daylight Saving Time where and when it is observed.

WINNIPEG A CS
MANITOBA

49°55'00.000" N
97°14'58.000" W
238.70 m
502S001
71849
XWG

Download Data

Hourly Data (October 2016)
Hourly Data Report for October 2, 2016
Temp Definition
°C
Dew Point Temp Definition
°C
Rel Hum Definition
%
Wind Dir Definition
10's deg

Wind Spd Definition
km/h
Visibility Definition
km
Stn Press Definition
kPa
Hmdx Definition


Wind Chill Definition


Weather Definition


TIME
00:00 13.0 9.9 82 14 11   98.97     LegendNANA
01:00 13.1 10.2 83 14 11   98.97     LegendNANA
02:00 12.4 10.0 85 13 12   98.98     LegendNANA
03:00 11.7 9.9 89 14 10   98.95     LegendNANA
04:00 11.5 9.7 89 14 11   98.93     LegendNANA
05:00 12.7 10.7 88 14 12   98.91     LegendNANA
06:00 13.3 11.2 87 14 15   98.88     LegendNANA
07:00 13.9 11.6 86 14 13   98.88     LegendNANA
08:00 14.7 12.1 84 14 15   98.85     LegendNANA
09:00 16.3 12.6 79 16 22   98.83     LegendNANA
10:00 17.2 13.0 76 16 17   98.83     LegendNANA
11:00 20.4 13.3 64 17 21   98.79     LegendNANA
12:00 22.6 13.4 56 16 25   98.73 26   LegendNANA
13:00 22.6 12.6 53 17 31   98.67 25   LegendNANA
14:00 23.3 13.4 54 17 27   98.60 26   LegendNANA
15:00 24.0 12.8 50 17 32   98.56 27   LegendNANA
16:00 22.8 12.9 54 17 28   98.54 26   LegendNANA
17:00 22.6 12.3 52 17 25   98.53 25   LegendNANA
18:00 21.9 11.8 53 18 24   98.55     LegendNANA
19:00 19.4 11.8 61 17 17   98.55     LegendNANA
20:00 19.9 12.1 61 15 15   98.51     LegendNANA
21:00 19.7 11.4 59 15 18   98.47     LegendNANA
22:00 19.7 10.8 56 15 20   98.44     LegendNANA
23:00 19.3 10.7 57 17 26   98.40     LegendNANA

Notes on Data Quality.

Legend

  • E = Estimated
  • M = Missing
  • NA = Not Available
  • ‡ = Partner data that is not subject to review by the National Climate Archives
Date modified: